| time (UTC) | temp C | wind direction | speed KPH | gust KPH | rain 1hr cm | rain 24hr cm | rain mn cm | humidity % | barometer mb |
| 20260507170433 | 20 | 300 | 8.0 | 0.0 | 0.00 | 0.00 | 0.00 | 76 | 1014.0 |
| 20260507165033 | 20 | 300 | 8.0 | 0.0 | 0.00 | 0.00 | 0.00 | 77 | 1014.0 |
| 20260507163632 | 20 | 300 | 9.7 | 0.0 | 0.00 | 0.00 | 0.00 | 77 | 1014.0 |
| 20260507162232 | 20 | 300 | 9.7 | 0.0 | 0.00 | 0.00 | 0.00 | 79 | 1015.0 |
| 20260507160831 | 19 | 300 | 9.7 | 0.0 | 0.00 | 0.00 | 0.00 | 82 | 1015.0 |
| 20260507155431 | 18 | 290 | 9.7 | 0.0 | 0.00 | 0.00 | 0.00 | 82 | 1015.0 |
| 20260507154030 | 18 | 290 | 9.7 | 0.0 | 0.00 | 0.00 | 0.00 | 75 | 1015.0 |
| 20260507152629 | 18 | 290 | 9.7 | 0.0 | 0.00 | 0.00 | 0.00 | 73 | 1016.0 |
| 20260507151228 | 18 | 290 | 9.7 | 0.0 | 0.00 | 0.00 | 0.00 | 71 | 1016.0 |
| 20260507145827 | 18 | 290 | 9.7 | 0.0 | 0.00 | 0.00 | 0.00 | 70 | 1016.0 |
| 20260507144426 | 18 | 290 | 9.7 | 0.0 | 0.00 | 0.00 | 0.00 | 70 | 1016.0 |
| 20260507143025 | 18 | 290 | 9.7 | 0.0 | 0.00 | 0.00 | 0.00 | 70 | 1016.0 |
| 20260507141625 | 18 | 290 | 9.7 | 0.0 | 0.00 | 0.00 | 0.00 | 69 | 1016.0 |
| 20260507140224 | 19 | 0 | 3.2 | 0.0 | 0.00 | 0.00 | 0.00 | 68 | 1016.0 |
| 20260507134823 | 19 | 0 | 3.2 | 0.0 | 0.00 | 0.00 | 0.00 | 68 | 1016.0 |
| 20260507133423 | 15 | 294 | 1.6 | 1.6 | 0.00 | 0.00 | 0.00 | 73 | 1016.0 |
| 20260507132022 | 15 | 294 | 1.6 | 1.6 | 0.00 | 0.00 | 0.00 | 73 | 1016.0 |
| 20260507130622 | 15 | 294 | 1.6 | 1.6 | 0.00 | 0.00 | 0.00 | 73 | 1016.0 |
| 20260507125221 | 15 | 294 | 3.2 | 1.6 | 0.00 | 0.00 | 0.00 | 73 | 1016.0 |
| 20260507123821 | 14 | 90 | 6.4 | 0.0 | 0.00 | 0.00 | 0.00 | 82 | 1016.0 |
| 20260507122420 | 14 | 90 | 6.4 | 0.0 | 0.00 | 0.00 | 0.00 | 82 | 1017.0 |
| 20260507121018 | 14 | 90 | 6.4 | 0.0 | 0.00 | 0.00 | 0.00 | 82 | 1017.0 |
| 20260507115618 | 14 | 90 | 6.4 | 0.0 | 0.00 | 0.00 | 0.00 | 82 | 1017.0 |
| 20260507114217 | 10 | 280 | 12.9 | 0.0 | 0.00 | 0.00 | 0.00 | 75 | 1017.0 |
| 20260507112816 | 10 | 280 | 12.9 | 0.0 | 0.00 | 0.00 | 0.00 | 75 | 1017.0 |
| 20260507111413 | 10 | 280 | 12.9 | 0.0 | 0.00 | 0.00 | 0.00 | 75 | 1017.0 |
| 20260507110010 | 10 | 280 | 12.9 | 0.0 | 0.00 | 0.00 | 0.00 | 75 | 1017.0 |
| 20260507104609 | 10 | 280 | 12.9 | 0.0 | 0.00 | 0.00 | 0.00 | 75 | 1017.0 |
| 20260507103206 | 10 | 280 | 12.9 | 0.0 | 0.00 | 0.00 | 0.00 | 75 | 1017.0 |
| 20260507101805 | 10 | 280 | 12.9 | 0.0 | 0.00 | 0.00 | 0.00 | 75 | 1017.0 |
| 20260507100404 | 10 | 280 | 12.9 | 0.0 | 0.00 | 0.00 | 0.00 | 75 | 1017.0 |
| 20260507095003 | 10 | 280 | 12.9 | 0.0 | 0.00 | 0.00 | 0.00 | 75 | 1017.0 |
| 20260507093601 | 10 | 280 | 12.9 | 0.0 | 0.00 | 0.00 | 0.00 | 75 | 1017.0 |
| 20260507092200 | 10 | 280 | 12.9 | 0.0 | 0.00 | 0.00 | 0.00 | 75 | 1016.0 |
| 20260507090758 | 10 | 280 | 12.9 | 0.0 | 0.00 | 0.00 | 0.00 | 75 | 1016.0 |
| 20260507085357 | 10 | 280 | 12.9 | 0.0 | 0.00 | 0.00 | 0.00 | 75 | 1016.0 |
| 20260507083954 | 10 | 280 | 12.9 | 0.0 | 0.00 | 0.00 | 0.00 | 75 | 1016.0 |
| 20260507082553 | 10 | 280 | 12.9 | 0.0 | 0.00 | 0.00 | 0.00 | 75 | 1016.0 |
| 20260507081153 | 10 | 280 | 12.9 | 0.0 | 0.00 | 0.00 | 0.00 | 75 | 1016.0 |
| 20260507075752 | 10 | 280 | 12.9 | 0.0 | 0.00 | 0.00 | 0.00 | 75 | 1016.0 |
| 20260507074352 | 10 | 280 | 12.9 | 0.0 | 0.00 | 0.00 | 0.00 | 75 | 1016.0 |
| 20260507072951 | 11 | 280 | 12.9 | 0.0 | 0.00 | 0.00 | 0.00 | 75 | 1017.0 |
| 20260507071548 | 11 | 280 | 12.9 | 0.0 | 0.00 | 0.00 | 0.00 | 75 | 1017.0 |
| 20260507070148 | 11 | 280 | 12.9 | 0.0 | 0.00 | 0.00 | 0.00 | 75 | 1017.0 |
| 20260507064747 | 11 | 280 | 12.9 | 0.0 | 0.00 | 0.00 | 0.00 | 75 | 1017.0 |
| 20260507063347 | 11 | 280 | 12.9 | 0.0 | 0.00 | 0.00 | 0.00 | 75 | 1017.0 |
| 20260507061946 | 11 | 280 | 12.9 | 0.0 | 0.00 | 0.00 | 0.00 | 75 | 1017.0 |
| 20260507060544 | 11 | 280 | 12.9 | 0.0 | 0.00 | 0.00 | 0.00 | 75 | 1017.0 |
| 20260507055143 | 11 | 280 | 12.9 | 0.0 | 0.00 | 0.00 | 0.00 | 75 | 1017.0 |
| 20260507053743 | 11 | 280 | 12.9 | 0.0 | 0.00 | 0.00 | 0.00 | 74 | 1017.0 |
| 20260507052342 | 11 | 280 | 12.9 | 0.0 | 0.00 | 0.00 | 0.00 | 74 | 1018.0 |
| 20260507050942 | 11 | 280 | 12.9 | 0.0 | 0.00 | 0.00 | 0.00 | 74 | 1018.0 |
| 20260507045541 | 11 | 280 | 12.9 | 0.0 | 0.00 | 0.00 | 0.00 | 74 | 1018.0 |
| 20260507044141 | 11 | 280 | 12.9 | 0.0 | 0.00 | 0.00 | 0.00 | 74 | 1018.0 |
| 20260507042740 | 11 | 280 | 12.9 | 0.0 | 0.00 | 0.00 | 0.00 | 74 | 1018.0 |
| 20260507041339 | 11 | 280 | 12.9 | 0.0 | 0.00 | 0.00 | 0.00 | 74 | 1018.0 |
| 20260507035939 | 11 | 280 | 12.9 | 0.0 | 0.00 | 0.00 | 0.00 | 74 | 1018.0 |
| 20260507034538 | 11 | 280 | 12.9 | 0.0 | 0.00 | 0.00 | 0.00 | 74 | 1018.0 |
| 20260507033138 | 12 | 280 | 12.9 | 0.0 | 0.00 | 0.00 | 0.00 | 74 | 1018.0 |
| 20260507031737 | 12 | 280 | 12.9 | 0.0 | 0.00 | 0.00 | 0.00 | 74 | 1018.0 |
| 20260507030336 | 12 | 280 | 12.9 | 0.0 | 0.00 | 0.00 | 0.00 | 74 | 1018.0 |
| 20260507024935 | 12 | 280 | 12.9 | 0.0 | 0.00 | 0.00 | 0.00 | 74 | 1018.0 |
| 20260507023534 | 12 | 280 | 12.9 | 0.0 | 0.00 | 0.00 | 0.00 | 73 | 1017.0 |
| 20260507022134 | 12 | 280 | 12.9 | 0.0 | 0.00 | 0.00 | 0.00 | 71 | 1017.0 |
| 20260507020733 | 12 | 280 | 12.9 | 0.0 | 0.00 | 0.00 | 0.00 | 69 | 1017.0 |
| 20260507015333 | 12 | 280 | 12.9 | 0.0 | 0.00 | 0.00 | 0.00 | 69 | 1017.0 |
| 20260507013932 | 12 | 280 | 12.9 | 0.0 | 0.00 | 0.00 | 0.00 | 69 | 1017.0 |
| 20260507012532 | 12 | 280 | 12.9 | 0.0 | 0.00 | 0.00 | 0.00 | 69 | 1016.0 |
| 20260507011131 | 12 | 280 | 12.9 | 0.0 | 0.00 | 0.00 | 0.00 | 69 | 1016.0 |
| 20260507005729 | 12 | 280 | 12.9 | 0.0 | 0.00 | 0.00 | 0.00 | 69 | 1016.0 |
| 20260507004329 | 13 | 280 | 12.9 | 0.0 | 0.00 | 0.00 | 0.00 | 69 | 1016.0 |
| 20260507002927 | 13 | 280 | 12.9 | 0.0 | 0.00 | 0.00 | 0.00 | 69 | 1015.0 |
| 20260507001527 | 13 | 280 | 12.9 | 0.0 | 0.00 | 0.00 | 0.00 | 69 | 1015.0 |
| 20260507000126 | 13 | 280 | 12.9 | 0.0 | 0.00 | 0.00 | 0.00 | 69 | 1015.0 |
| 20260506234725 | 14 | 280 | 12.9 | 0.0 | 0.00 | 0.00 | 0.00 | 69 | 1015.0 |
| 20260506233324 | 15 | 280 | 12.9 | 0.0 | 0.00 | 0.00 | 0.00 | 69 | 1014.0 |
| 20260506231921 | 15 | 280 | 12.9 | 0.0 | 0.00 | 0.00 | 0.00 | 69 | 1013.0 |
| 20260506230521 | 16 | 280 | 12.9 | 0.0 | 0.00 | 0.00 | 0.00 | 69 | 1013.0 |
| 20260506225119 | 16 | 280 | 12.9 | 0.0 | 0.00 | 0.00 | 0.00 | 69 | 1013.0 |
| 20260506223719 | 17 | 280 | 12.9 | 0.0 | 0.00 | 0.00 | 0.00 | 69 | 1013.0 |
| 20260506222319 | 17 | 280 | 12.9 | 0.0 | 0.00 | 0.00 | 0.00 | 69 | 1011.0 |
| 20260506220916 | 17 | 280 | 12.9 | 0.0 | 0.00 | 0.00 | 0.00 | 69 | 1011.0 |
| 20260506215516 | 18 | 280 | 12.9 | 0.0 | 0.00 | 0.00 | 0.00 | 69 | 1011.0 |
| 20260506214115 | 18 | 280 | 12.9 | 0.0 | 0.00 | 0.00 | 0.00 | 69 | 1011.0 |
| 20260506212712 | 19 | 280 | 12.9 | 0.0 | 0.00 | 0.00 | 0.00 | 69 | 1010.0 |
| 20260506205811 | 19 | 280 | 12.9 | 0.0 | 0.00 | 0.00 | 0.00 | 69 | 1010.0 |
| 20260506204410 | 19 | 280 | 12.9 | 0.0 | 0.00 | 0.00 | 0.00 | 69 | 1010.0 |
| 20260506203009 | 20 | 280 | 12.9 | 0.0 | 0.00 | 0.00 | 0.00 | 69 | 1010.0 |
| 20260506201609 | 20 | 280 | 12.9 | 0.0 | 0.00 | 0.00 | 0.00 | 69 | 1010.0 |
| 20260506200208 | 21 | 280 | 12.9 | 0.0 | 0.00 | 0.00 | 0.00 | 69 | 1010.0 |
| 20260506194808 | 21 | 280 | 12.9 | 0.0 | 0.00 | 0.00 | 0.00 | 69 | 1010.0 |
| 20260506193407 | 21 | 280 | 12.9 | 0.0 | 0.00 | 0.00 | 0.00 | 69 | 1011.0 |
| 20260506192006 | 21 | 280 | 12.9 | 0.0 | 0.00 | 0.00 | 0.00 | 69 | 1011.0 |
| 20260506190605 | 21 | 320 | 12.9 | 0.0 | 0.00 | 0.00 | 0.00 | 69 | 1011.0 |
| 20260506185205 | 21 | 320 | 12.9 | 0.0 | 0.00 | 0.00 | 0.00 | 69 | 1011.0 |
| 20260506183804 | 21 | 320 | 12.9 | 0.0 | 0.00 | 0.00 | 0.00 | 69 | 1011.0 |
| 20260506182404 | 19 | 290 | 12.9 | 0.0 | 0.00 | 0.00 | 0.00 | 75 | 1012.0 |
| 20260506181003 | 19 | 290 | 12.9 | 0.0 | 0.00 | 0.00 | 0.00 | 75 | 1012.0 |
| 20260506175602 | 19 | 290 | 12.9 | 0.0 | 0.00 | 0.00 | 0.00 | 75 | 1012.0 |
| 20260506174202 | 19 | 290 | 12.9 | 0.0 | 0.00 | 0.00 | 0.00 | 75 | 1013.0 |
| 20260506172801 | 19 | 300 | 12.9 | 0.0 | 0.00 | 0.00 | 0.00 | 75 | 1014.0 |